Skip Page Navigation
NASA JPL Caltech
NASA Logo - Jet Propulsion Laboratory + View the NASA Portal
+ Near-Earth Object (NEO) Program
Search JPL
JPL Home Earth Solar System Stars & Galaxies Technology
JPL Solar System Dynamics
BODIES ORBITS EPHEMERIDES TOOLS PHYSICAL DATA DISCOVERY FAQ SITE MAP
JPL Small-Body Database Browser
Search: [ help ]  
(2005 TH50)
Classification: Aten [NEO]          SPK-ID: 3293923
Ephemeris | Orbit Diagram | Orbital Elements | Physical Parameters | Close-Approach Data ]

[ hide orbit diagram ]
Orbit Diagram
Note: Make sure you have Java enabled on your browser to see the applet. This applet is provided as a 3D orbit visualization tool. The applet was implemented using 2-body methods, and hence should not be used for determining accurate long-term trajectories (over several years or decades) or planetary encounter circumstances. For accurate long-term ephemerides, please instead use our Horizons system.
Orbit Viewer

Additional Notes: the orbits shown in the applet are color coded. The planets are white lines, and the asteroid/comet is a blue line. The bright white line indicates the portion of the orbit that is above the ecliptic plane, and the darker portion is below the ecliptic plane. Likewise for the asteroid/comet orbit, the light blue indicates the portion above the ecliptic plane, and the dark blue the portion below the ecliptic plane.

Orbit Viewer applet originally written and kindly provided by Osamu Ajiki (AstroArts), and further modified by Ron Baalke (JPL).


Orbital Elements at Epoch 2453654.5 (2005-Oct-11.0) TDB
Reference: JPL 6 (heliocentric ecliptic J2000)
 Element Value Uncertainty (1-sigma)   Units 
e .2252475711649282 0.0011891  
a .8376511119178947 0.00065433 AU
q .6489722334747874 0.001503 AU
i .7314430911136137 0.0046487 deg
node 196.8356435179377 0.00098563 deg
peri 18.17027994671663 0.014042 deg
M 153.6784500429001 0.078862 deg
tp 2453534.962642299323
(2005-Jun-13.46264230)
0.20138 JED
period 280.0226626454829
0.77
0.32811
0.0008983
d
yr
n 1.285610230968237 0.0015064 deg/d
Q 1.026329990361002 0.00080171 AU
  Orbit Determination Parameters
   # obs. used (total)      16  
   data-arc span      4 days  
   first obs. used      2005-10-09  
   last obs. used      2005-10-13  
   planetary ephem.      DE405  
   SB-pert. ephem.      SB405-CPV-2  
   condition code      8  
   fit RMS      .81573  
   data source      ORB  
   producer      Otto Matic  
   solution date      2011-Sep-14 20:04:43  

Additional Information
 Earth MOID = .00137276 AU 
 T_jup = 6.994 
[ show covariance matrix ]

Ephemeris | Orbit Diagram | Orbital Elements | Physical Parameters | Close-Approach Data ]

Physical Parameter Table
Parameter Symbol Value Units Sigma Reference Notes
absolute magnitude H 27.994 mag .30289 6 autocmod 2.5a

[ show close-approach data ]
Ephemeris | Orbit Diagram | Orbital Elements | Physical Parameters | Close-Approach Data ]
ABOUT SSD CREDITS/AWARDS PRIVACY/COPYRIGHT GLOSSARY LINKS
FirstGov 2013-May-21 14:11 UT
(server date/time)  
NASA Home Page
Site Manager:   Donald K. Yeomans
Webmaster  Alan B. Chamberlin